Time,TemperatureF,DewpointF,PressureIn,WindDirection,WindDirectionDegrees,WindSpeedMPH,WindSpeedGustMPH,Humidity,HourlyPrecipIn,Conditions,Clouds,dailyrainin,SolarRadiationWatts/m^2,SoftwareType,DateUTC
2013-04-13 00:01:00,46.5,25.7,29.51,SW,215,9.0,11.0,44,0.00,,,0.00,0,Wunderground v.1.15,2013-04-13 06:01:00,
2013-04-13 00:06:00,46.1,25.9,29.51,SSW,209,7.0,11.0,45,0.00,,,0.00,0,Wunderground v.1.15,2013-04-13 06:06:00,
2013-04-13 00:11:00,45.9,25.7,29.51,SW,225,4.0,8.0,45,0.00,,,0.00,0,Wunderground v.1.15,2013-04-13 06:11:00,
2013-04-13 00:17:00,45.7,26.1,29.50,SW,215,11.0,11.0,46,0.00,,,0.00,0,Wunderground v.1.15,2013-04-13 06:17:00,
2013-04-13 00:22:00,45.7,26.1,29.50,SW,220,12.0,12.0,46,0.00,,,0.00,0,Wunderground v.1.15,2013-04-13 06:22:00,
2013-04-13 00:28:00,45.7,26.1,29.50,SSW,210,2.0,12.0,46,0.00,,,0.00,0,Wunderground v.1.15,2013-04-13 06:28:00,
2013-04-13 00:33:00,45.7,26.1,29.49,South,182,4.0,7.0,46,0.00,,,0.00,0,Wunderground v.1.15,2013-04-13 06:33:00,
2013-04-13 00:40:00,45.5,25.9,29.49,South,177,5.0,5.0,46,0.00,,,0.00,0,Wunderground v.1.15,2013-04-13 06:40:00,
2013-04-13 00:46:00,45.2,26.1,29.48,South,177,16.0,16.0,47,0.00,,,0.00,0,Wunderground v.1.15,2013-04-13 06:46:00,
2013-04-13 00:51:00,45.0,26.5,29.48,SE,136,5.0,13.0,48,0.00,,,0.00,0,Wunderground v.1.15,2013-04-13 06:51:00,
2013-04-13 00:57:00,44.7,26.7,29.48,SSE,154,8.0,13.0,49,0.00,,,0.00,0,Wunderground v.1.15,2013-04-13 06:57:00,
2013-04-13 01:03:00,44.5,27.0,29.47,SSE,163,2.0,10.0,50,0.00,,,0.00,0,Wunderground v.1.15,2013-04-13 07:03:00,
2013-04-13 01:08:00,44.6,26.6,29.47,SE,145,9.0,11.0,49,0.00,,,0.00,0,Wunderground v.1.15,2013-04-13 07:08:00,
2013-04-13 01:14:00,44.8,26.8,29.47,South,184,9.0,16.0,49,0.00,,,0.00,0,Wunderground v.1.15,2013-04-13 07:14:00,
2013-04-13 01:19:00,44.9,26.4,29.46,SSE,161,8.0,16.0,48,0.00,,,0.00,0,Wunderground v.1.15,2013-04-13 07:19:00,
2013-04-13 01:25:00,45.0,26.5,29.46,South,182,10.0,13.0,48,0.00,,,0.00,0,Wunderground v.1.15,2013-04-13 07:25:00,
2013-04-13 01:30:00,45.1,26.1,29.45,South,186,9.0,10.0,47,0.00,,,0.00,0,Wunderground v.1.15,2013-04-13 07:30:00,
2013-04-13 01:37:00,45.5,25.9,29.45,SSE,164,14.0,14.0,46,0.00,,,0.00,0,Wunderground v.1.15,2013-04-13 07:37:00,
2013-04-13 01:43:00,45.2,26.7,29.45,South,172,13.0,20.0,48,0.00,,,0.00,0,Wunderground v.1.15,2013-04-13 07:43:00,
2013-04-13 01:49:00,44.9,27.4,29.44,South,180,11.0,20.0,50,0.00,,,0.00,0,Wunderground v.1.15,2013-04-13 07:49:00,
2013-04-13 01:54:00,44.5,28.0,29.44,SSE,152,15.0,20.0,52,0.00,,,0.00,0,Wunderground v.1.15,2013-04-13 07:54:00,
2013-04-13 02:00:00,43.9,29.2,29.44,South,188,18.0,18.0,56,0.00,,,0.00,0,Wunderground v.1.15,2013-04-13 08:00:00,
2013-04-13 02:05:00,43.4,29.6,29.44,SSE,155,19.0,28.0,58,0.00,,,0.00,0,Wunderground v.1.15,2013-04-13 08:05:00,
2013-04-13 02:10:00,43.3,29.9,29.44,South,171,11.0,20.0,59,0.00,,,0.00,0,Wunderground v.1.15,2013-04-13 08:10:00,
2013-04-13 02:15:00,43.2,29.8,29.43,SE,140,15.0,24.0,59,0.00,,,0.00,0,Wunderground v.1.15,2013-04-13 08:15:00,
2013-04-13 02:20:00,43.1,30.1,29.43,SSE,156,11.0,18.0,60,0.00,,,0.00,0,Wunderground v.1.15,2013-04-13 08:20:00,
2013-04-13 02:26:00,42.9,30.4,29.43,SSE,148,13.0,23.0,61,0.00,,,0.00,0,Wunderground v.1.15,2013-04-13 08:26:00,
2013-04-13 02:31:00,42.9,30.4,29.43,SSE,152,13.0,23.0,61,0.00,,,0.00,0,Wunderground v.1.15,2013-04-13 08:31:00,
2013-04-13 02:36:00,42.8,30.7,29.43,SSW,194,11.0,24.0,62,0.00,,,0.00,0,Wunderground v.1.15,2013-04-13 08:36:00,
2013-04-13 02:41:00,42.7,31.0,29.43,SSE,167,15.0,15.0,63,0.00,,,0.00,0,Wunderground v.1.15,2013-04-13 08:41:00,
2013-04-13 02:47:00,42.6,30.9,29.41,SSE,161,15.0,18.0,63,0.00,,,0.00,0,Wunderground v.1.15,2013-04-13 08:47:00,
2013-04-13 02:52:00,42.7,30.6,29.41,South,189,7.0,18.0,62,0.00,,,0.00,0,Wunderground v.1.15,2013-04-13 08:52:00,
2013-04-13 02:57:00,42.8,30.7,29.41,SE,141,11.0,20.0,62,0.00,,,0.00,0,Wunderground v.1.15,2013-04-13 08:57:00,
2013-04-13 03:02:00,42.8,30.7,29.40,SSE,166,7.0,19.0,62,0.00,,,0.00,0,Wunderground v.1.15,2013-04-13 09:02:00,
2013-04-13 03:07:00,42.9,30.8,29.40,SSE,168,9.0,19.0,62,0.00,,,0.00,0,Wunderground v.1.15,2013-04-13 09:07:00,
2013-04-13 03:13:00,42.9,30.8,29.40,South,186,10.0,15.0,62,0.00,,,0.00,0,Wunderground v.1.15,2013-04-13 09:13:00,
2013-04-13 03:18:00,42.8,31.1,29.40,SSE,150,13.0,22.0,63,0.00,,,0.00,0,Wunderground v.1.15,2013-04-13 09:18:00,
2013-04-13 03:23:00,42.7,31.4,29.40,South,175,8.0,18.0,64,0.00,,,0.00,0,Wunderground v.1.15,2013-04-13 09:23:00,
2013-04-13 03:28:00,42.6,31.3,29.40,SSE,161,14.0,18.0,64,0.00,,,0.00,0,Wunderground v.1.15,2013-04-13 09:28:00,
2013-04-13 03:34:00,42.5,31.6,29.39,SE,137,11.0,16.0,65,0.00,,,0.00,0,Wunderground v.1.15,2013-04-13 09:34:00,
2013-04-13 03:39:00,42.6,31.3,29.39,SSE,167,8.0,19.0,64,0.00,,,0.00,0,Wunderground v.1.15,2013-04-13 09:39:00,
2013-04-13 03:44:00,42.6,31.3,29.39,South,175,9.0,22.0,64,0.00,,,0.00,0,Wunderground v.1.15,2013-04-13 09:44:00,
2013-04-13 03:49:00,42.6,31.3,29.38,SSE,159,7.0,22.0,64,0.00,,,0.00,0,Wunderground v.1.15,2013-04-13 09:49:00,
2013-04-13 03:55:00,42.7,31.4,29.38,SE,134,17.0,22.0,64,0.00,,,0.00,0,Wunderground v.1.15,2013-04-13 09:55:00,
2013-04-13 04:00:00,42.6,31.3,29.38,SSE,149,11.0,15.0,64,0.00,,,0.00,0,Wunderground v.1.15,2013-04-13 10:00:00,
2013-04-13 04:05:00,42.6,31.3,29.38,South,181,9.0,15.0,64,0.00,,,0.00,0,Wunderground v.1.15,2013-04-13 10:05:00,
2013-04-13 04:10:00,42.6,31.7,29.38,SSE,159,9.0,11.0,65,0.00,,,0.00,0,Wunderground v.1.15,2013-04-13 10:10:00,
2013-04-13 04:15:00,42.6,31.7,29.37,SSE,149,9.0,16.0,65,0.00,,,0.00,0,Wunderground v.1.15,2013-04-13 10:15:00,
2013-04-13 04:20:00,42.6,31.3,29.37,SSE,152,7.0,14.0,64,0.00,,,0.00,0,Wunderground v.1.15,2013-04-13 10:20:00,
2013-04-13 04:25:00,42.7,31.4,29.37,SE,138,11.0,16.0,64,0.00,,,0.00,0,Wunderground v.1.15,2013-04-13 10:25:00,
2013-04-13 04:30:00,42.7,31.4,29.36,SE,145,12.0,19.0,64,0.00,,,0.00,0,Wunderground v.1.15,2013-04-13 10:30:00,
2013-04-13 04:35:00,42.7,31.7,29.36,SSE,156,10.0,19.0,65,0.00,,,0.00,0,Wunderground v.1.15,2013-04-13 10:35:00,
2013-04-13 04:40:00,42.5,31.9,29.36,ESE,115,3.0,15.0,66,0.00,,,0.00,0,Wunderground v.1.15,2013-04-13 10:40:00,
2013-04-13 04:45:00,42.5,31.9,29.36,SE,138,10.0,16.0,66,0.00,,,0.00,0,Wunderground v.1.15,2013-04-13 10:45:00,
2013-04-13 04:51:00,42.6,31.7,29.36,SSE,149,14.0,14.0,65,0.00,,,0.00,0,Wunderground v.1.15,2013-04-13 10:51:00,
2013-04-13 04:56:00,42.9,31.6,29.36,South,183,5.0,19.0,64,0.00,,,0.00,0,Wunderground v.1.15,2013-04-13 10:56:00,
2013-04-13 05:02:00,42.9,31.6,29.35,SE,140,14.0,17.0,64,0.00,,,0.00,0,Wunderground v.1.15,2013-04-13 11:02:00,
2013-04-13 05:07:00,43.2,31.4,29.35,SSE,163,6.0,17.0,63,0.00,,,0.00,0,Wunderground v.1.15,2013-04-13 11:07:00,
2013-04-13 05:12:00,43.0,31.6,29.35,SSE,156,6.0,11.0,64,0.00,,,0.00,0,Wunderground v.1.15,2013-04-13 11:12:00,
2013-04-13 05:17:00,42.8,31.8,29.34,SE,141,9.0,14.0,65,0.00,,,0.00,0,Wunderground v.1.15,2013-04-13 11:17:00,
2013-04-13 05:22:00,42.5,31.9,29.34,SSE,155,9.0,13.0,66,0.00,,,0.00,0,Wunderground v.1.15,2013-04-13 11:22:00,
2013-04-13 05:28:00,42.5,31.9,29.34,South,190,8.0,18.0,66,0.00,,,0.00,0,Wunderground v.1.15,2013-04-13 11:28:00,
2013-04-13 05:33:00,42.4,32.2,29.34,SE,145,11.0,14.0,67,0.00,,,0.00,0,Wunderground v.1.15,2013-04-13 11:33:00,
2013-04-13 05:38:00,42.3,32.1,29.34,SE,145,9.0,14.0,67,0.00,,,0.00,0,Wunderground v.1.15,2013-04-13 11:38:00,
2013-04-13 05:43:00,42.3,32.1,29.34,SSE,157,10.0,15.0,67,0.00,,,0.00,0,Wunderground v.1.15,2013-04-13 11:43:00,
2013-04-13 05:48:00,42.3,32.1,29.34,South,187,6.0,15.0,67,0.00,,,0.00,0,Wunderground v.1.15,2013-04-13 11:48:00,
2013-04-13 05:53:00,42.8,31.8,29.34,SE,144,10.0,18.0,65,0.00,,,0.00,0,Wunderground v.1.15,2013-04-13 11:53:00,
2013-04-13 05:58:00,42.4,31.8,29.34,SE,142,10.0,18.0,66,0.00,,,0.00,0,Wunderground v.1.15,2013-04-13 11:58:00,
2013-04-13 06:03:00,41.9,31.7,29.32,SSE,168,4.0,13.0,67,0.00,,,0.00,0,Wunderground v.1.15,2013-04-13 12:03:00,
2013-04-13 06:08:00,41.7,31.5,29.32,SSE,157,7.0,13.0,67,0.00,,,0.00,0,Wunderground v.1.15,2013-04-13 12:08:00,
2013-04-13 06:13:00,41.6,31.4,29.32,SSE,160,5.0,13.0,67,0.00,,,0.00,0,Wunderground v.1.15,2013-04-13 12:13:00,
2013-04-13 06:18:00,41.6,31.1,29.32,South,179,3.0,13.0,66,0.00,,,0.00,0,Wunderground v.1.15,2013-04-13 12:18:00,
2013-04-13 06:23:00,41.7,30.4,29.32,South,183,5.0,8.0,64,0.00,,,0.00,0,Wunderground v.1.15,2013-04-13 12:23:00,
2013-04-13 06:28:00,42.2,29.7,29.32,SSW,213,3.0,10.0,61,0.00,,,0.00,0,Wunderground v.1.15,2013-04-13 12:28:00,
2013-04-13 06:33:00,42.4,30.3,29.32,SSE,154,9.0,12.0,62,0.00,,,0.00,0,Wunderground v.1.15,2013-04-13 12:33:00,
2013-04-13 06:38:00,42.3,29.8,29.32,SW,221,0.0,12.0,61,0.00,,,0.00,0,Wunderground v.1.15,2013-04-13 12:38:00,
2013-04-13 06:44:00,41.2,31.1,29.32,NNW,342,3.0,15.0,67,0.00,,,0.00,0,Wunderground v.1.15,2013-04-13 12:44:00,
2013-04-13 06:49:00,39.8,31.2,29.33,NNW,329,8.0,15.0,71,0.00,,,0.00,0,Wunderground v.1.15,2013-04-13 12:49:00,
2013-04-13 06:54:00,38.7,31.5,29.33,NW,325,11.0,15.0,75,0.00,,,0.00,5,Wunderground v.1.15,2013-04-13 12:54:00,
2013-04-13 06:59:00,37.6,31.4,29.33,NNW,340,9.0,15.0,78,0.00,,,0.00,9,Wunderground v.1.15,2013-04-13 12:59:00,
2013-04-13 07:04:00,37.1,31.2,29.33,North,355,3.0,13.0,79,0.00,,,0.00,12,Wunderground v.1.15,2013-04-13 13:04:00,
2013-04-13 07:10:00,36.9,31.6,29.33,NNW,344,10.0,10.0,81,0.00,,,0.00,16,Wunderground v.1.15,2013-04-13 13:10:00,
2013-04-13 07:15:00,36.8,31.8,29.33,NW,325,10.0,14.0,82,0.00,,,0.00,39,Wunderground v.1.15,2013-04-13 13:15:00,
2013-04-13 07:20:00,37.0,32.3,29.33,NNW,337,6.0,9.0,83,0.00,,,0.00,47,Wunderground v.1.15,2013-04-13 13:20:00,
2013-04-13 07:25:00,37.4,32.4,29.33,NNW,341,11.0,15.0,82,0.00,,,0.00,33,Wunderground v.1.15,2013-04-13 13:25:00,
2013-04-13 07:30:00,37.7,31.5,29.33,NNW,340,12.0,18.0,78,0.00,,,0.00,30,Wunderground v.1.15,2013-04-13 13:30:00,
2013-04-13 07:35:00,37.3,30.4,29.33,NW,307,18.0,23.0,76,0.00,,,0.00,33,Wunderground v.1.15,2013-04-13 13:35:00,
2013-04-13 07:40:00,36.8,30.6,29.33,NW,306,7.0,14.0,78,0.00,,,0.00,37,Wunderground v.1.15,2013-04-13 13:40:00,
2013-04-13 07:48:00,36.8,30.6,29.32,North,355,11.0,22.0,78,0.00,,,0.00,39,Wunderground v.1.15,2013-04-13 13:48:00,
2013-04-13 07:53:00,37.6,30.4,29.32,NW,309,9.0,19.0,75,0.00,,,0.00,54,Wunderground v.1.15,2013-04-13 13:53:00,
2013-04-13 07:58:00,37.9,30.4,29.32,NW,325,9.0,23.0,74,0.00,,,0.00,56,Wunderground v.1.15,2013-04-13 13:58:00,
2013-04-13 08:03:00,37.8,30.3,29.33,NW,325,13.0,18.0,74,0.00,,,0.00,56,Wunderground v.1.15,2013-04-13 14:03:00,
2013-04-13 08:09:00,37.8,30.9,29.33,NNW,330,8.0,18.0,76,0.00,,,0.00,63,Wunderground v.1.15,2013-04-13 14:09:00,
2013-04-13 08:14:00,37.8,30.9,29.33,NW,324,12.0,16.0,76,0.00,,,0.00,63,Wunderground v.1.15,2013-04-13 14:14:00,
2013-04-13 08:19:00,37.8,30.9,29.34,NW,323,16.0,18.0,76,0.00,,,0.00,60,Wunderground v.1.15,2013-04-13 14:19:00,
2013-04-13 08:24:00,37.7,30.8,29.34,NW,326,11.0,21.0,76,0.00,,,0.00,93,Wunderground v.1.15,2013-04-13 14:24:00,
2013-04-13 08:29:00,37.4,29.9,29.34,NW,323,17.0,21.0,74,0.00,,,0.00,79,Wunderground v.1.15,2013-04-13 14:29:00,
2013-04-13 08:34:00,37.1,29.2,29.34,NW,315,13.0,19.0,73,0.00,,,0.00,84,Wunderground v.1.15,2013-04-13 14:34:00,
2013-04-13 08:40:00,37.1,29.6,29.34,NNW,336,12.0,15.0,74,0.00,,,0.00,114,Wunderground v.1.15,2013-04-13 14:40:00,
2013-04-13 08:45:00,37.1,29.6,29.35,NW,320,11.0,20.0,74,0.00,,,0.00,102,Wunderground v.1.15,2013-04-13 14:45:00,
2013-04-13 08:50:00,36.8,29.3,29.35,NNW,346,13.0,19.0,74,0.00,,,0.00,84,Wunderground v.1.15,2013-04-13 14:50:00,
2013-04-13 08:55:00,36.4,28.9,29.35,NNW,340,14.0,21.0,74,0.00,,,0.00,47,Wunderground v.1.15,2013-04-13 14:55:00,
2013-04-13 09:01:00,36.2,29.0,29.34,NW,321,9.0,14.0,75,0.00,,,0.00,120,Wunderground v.1.15,2013-04-13 15:01:00,
2013-04-13 09:06:00,36.4,29.6,29.34,North,355,13.0,14.0,76,0.00,,,0.00,146,Wunderground v.1.15,2013-04-13 15:06:00,
2013-04-13 09:11:00,36.7,29.8,29.34,NNW,338,6.0,11.0,76,0.00,,,0.00,134,Wunderground v.1.15,2013-04-13 15:11:00,
2013-04-13 09:16:00,37.1,30.2,29.34,NNW,344,11.0,22.0,76,0.00,,,0.00,295,Wunderground v.1.15,2013-04-13 15:16:00,
2013-04-13 09:23:00,37.9,29.7,29.34,North,355,15.0,16.0,72,0.00,,,0.00,130,Wunderground v.1.15,2013-04-13 15:23:00,
2013-04-13 09:28:00,37.8,29.2,29.34,NW,321,14.0,20.0,71,0.00,,,0.00,178,Wunderground v.1.15,2013-04-13 15:28:00,
2013-04-13 09:33:00,38.0,29.8,29.34,NNW,334,10.0,15.0,72,0.00,,,0.00,188,Wunderground v.1.15,2013-04-13 15:33:00,
2013-04-13 09:38:00,38.2,29.6,29.34,WNW,300,14.0,19.0,71,0.00,,,0.00,105,Wunderground v.1.15,2013-04-13 15:38:00,
2013-04-13 09:43:00,38.0,29.1,29.34,WNW,296,18.0,18.0,70,0.00,,,0.00,88,Wunderground v.1.15,2013-04-13 15:43:00,
2013-04-13 09:48:00,38.0,29.1,29.34,NW,313,10.0,18.0,70,0.00,,,0.00,62,Wunderground v.1.15,2013-04-13 15:48:00,
2013-04-13 09:54:00,38.4,27.3,29.34,WNW,286,13.0,17.0,64,0.00,,,0.00,67,Wunderground v.1.15,2013-04-13 15:54:00,
2013-04-13 09:59:00,38.8,26.9,29.34,West,281,6.0,17.0,62,0.00,,,0.00,69,Wunderground v.1.15,2013-04-13 15:59:00,
2013-04-13 10:04:00,39.4,26.2,29.34,West,261,6.0,11.0,59,0.00,,,0.00,100,Wunderground v.1.15,2013-04-13 16:04:00,
2013-04-13 10:09:00,40.1,28.1,29.34,ESE,114,11.0,14.0,62,0.00,,,0.00,635,Wunderground v.1.15,2013-04-13 16:09:00,
2013-04-13 10:14:00,40.4,29.9,29.34,ESE,117,4.0,11.0,66,0.00,,,0.00,619,Wunderground v.1.15,2013-04-13 16:14:00,
2013-04-13 10:19:00,41.2,29.5,29.34,SE,137,11.0,12.0,63,0.00,,,0.00,608,Wunderground v.1.15,2013-04-13 16:19:00,
2013-04-13 10:25:00,41.9,29.4,29.34,SSE,164,9.0,9.0,61,0.00,,,0.00,612,Wunderground v.1.15,2013-04-13 16:25:00,
2013-04-13 10:30:00,42.7,29.8,29.32,SE,145,5.0,11.0,60,0.00,,,0.00,622,Wunderground v.1.15,2013-04-13 16:30:00,
2013-04-13 10:35:00,43.6,25.7,29.32,SE,128,7.0,13.0,49,0.00,,,0.00,635,Wunderground v.1.15,2013-04-13 16:35:00,
2013-04-13 10:40:00,44.8,27.3,29.32,SE,144,5.0,8.0,50,0.00,,,0.00,643,Wunderground v.1.15,2013-04-13 16:40:00,
2013-04-13 10:45:00,44.5,26.0,29.32,SSE,161,11.0,11.0,48,0.00,,,0.00,668,Wunderground v.1.15,2013-04-13 16:45:00,
2013-04-13 10:50:00,44.2,21.4,29.32,South,172,5.0,7.0,40,0.00,,,0.00,726,Wunderground v.1.15,2013-04-13 16:50:00,
2013-04-13 10:55:00,45.0,20.3,29.32,SSW,194,6.0,15.0,37,0.00,,,0.00,768,Wunderground v.1.15,2013-04-13 16:55:00,
2013-04-13 11:02:00,45.6,16.7,29.32,West,261,3.0,11.0,31,0.00,,,0.00,768,Wunderground v.1.15,2013-04-13 17:02:00,
2013-04-13 11:07:00,46.7,15.3,29.32,WNW,292,14.0,20.0,28,0.00,,,0.00,747,Wunderground v.1.15,2013-04-13 17:07:00,
2013-04-13 11:13:00,46.6,16.0,29.32,West,263,11.0,18.0,29,0.00,,,0.00,684,Wunderground v.1.15,2013-04-13 17:13:00,
2013-04-13 11:18:00,46.2,14.0,29.31,SW,230,13.0,18.0,27,0.00,,,0.00,893,Wunderground v.1.15,2013-04-13 17:18:00,
2013-04-13 11:23:00,46.5,14.3,29.31,SW,229,9.0,19.0,27,0.00,,,0.00,893,Wunderground v.1.15,2013-04-13 17:23:00,
2013-04-13 11:28:00,46.0,14.7,29.31,NNW,330,11.0,19.0,28,0.00,,,0.00,893,Wunderground v.1.15,2013-04-13 17:28:00,
2013-04-13 11:33:00,45.3,12.4,29.32,WSW,248,5.0,22.0,26,0.00,,,0.00,279,Wunderground v.1.15,2013-04-13 17:33:00,
2013-04-13 11:38:00,45.2,13.1,29.32,West,265,2.0,22.0,27,0.00,,,0.00,476,Wunderground v.1.15,2013-04-13 17:38:00,
2013-04-13 11:43:00,45.8,12.8,29.32,WNW,288,8.0,10.0,26,0.00,,,0.00,497,Wunderground v.1.15,2013-04-13 17:43:00,
2013-04-13 11:48:00,44.6,24.0,29.33,NW,318,23.0,34.0,44,0.00,,,0.00,258,Wunderground v.1.15,2013-04-13 17:48:00,
2013-04-13 11:54:00,39.7,24.8,29.33,NW,306,20.0,24.0,55,0.00,,,0.00,271,Wunderground v.1.15,2013-04-13 17:54:00,
2013-04-13 11:59:00,37.8,25.1,29.33,NW,326,21.0,36.0,60,0.00,,,0.00,283,Wunderground v.1.15,2013-04-13 17:59:00,
2013-04-13 12:04:00,36.0,26.5,29.34,NNW,329,26.0,30.0,68,0.00,,,0.00,374,Wunderground v.1.15,2013-04-13 18:04:00,
2013-04-13 12:09:00,35.0,27.9,29.34,NW,322,23.0,23.0,75,0.00,,,0.00,459,Wunderground v.1.15,2013-04-13 18:09:00,
2013-04-13 12:14:00,34.4,28.6,29.34,WNW,292,22.0,33.0,79,0.00,,,0.00,585,Wunderground v.1.15,2013-04-13 18:14:00,
2013-04-13 12:19:00,34.0,28.8,29.36,WNW,303,15.0,21.0,81,0.00,,,0.00,297,Wunderground v.1.15,2013-04-13 18:19:00,
2013-04-13 12:25:00,33.0,28.1,29.36,NW,319,15.0,25.0,82,0.00,,,0.00,250,Wunderground v.1.15,2013-04-13 18:25:00,
2013-04-13 12:27:00,32.9,28.0,29.36,NW,318,13.0,25.0,82,0.00,,,0.00,265,Wunderground v.1.15,2013-04-13 18:27:00,
2013-04-13 12:32:00,33.4,28.8,29.38,West,280,20.0,23.0,83,0.00,,,0.00,564,Wunderground v.1.15,2013-04-13 18:32:00,
2013-04-13 12:37:00,34.4,30.1,29.38,NNW,327,14.0,28.0,84,0.00,,,0.00,865,Wunderground v.1.15,2013-04-13 18:37:00,
2013-04-13 12:42:00,34.5,30.2,29.38,WNW,296,30.0,30.0,84,0.00,,,0.00,265,Wunderground v.1.15,2013-04-13 18:42:00,
2013-04-13 12:47:00,33.7,29.1,29.39,WNW,298,18.0,30.0,83,0.00,,,0.00,371,Wunderground v.1.15,2013-04-13 18:47:00,
2013-04-13 12:52:00,33.9,28.4,29.39,WNW,296,14.0,25.0,80,0.00,,,0.00,401,Wunderground v.1.15,2013-04-13 18:52:00,
2013-04-13 12:57:00,34.5,29.0,29.39,NW,314,12.0,25.0,80,0.00,,,0.00,432,Wunderground v.1.15,2013-04-13 18:57:00,
2013-04-13 13:02:00,35.7,30.1,29.40,NNW,338,12.0,24.0,80,0.00,,,0.00,953,Wunderground v.1.15,2013-04-13 19:02:00,
2013-04-13 13:07:00,37.0,30.8,29.40,North,355,11.0,24.0,78,0.00,,,0.00,967,Wunderground v.1.15,2013-04-13 19:07:00,
2013-04-13 13:12:00,37.9,29.7,29.40,North,360,14.0,16.0,72,0.00,,,0.00,940,Wunderground v.1.15,2013-04-13 19:12:00,
2013-04-13 13:17:00,37.4,27.8,29.40,NNW,344,11.0,16.0,68,0.00,,,0.00,283,Wunderground v.1.15,2013-04-13 19:17:00,
2013-04-13 13:22:00,37.6,27.3,29.40,North,9,3.0,13.0,66,0.00,,,0.00,283,Wunderground v.1.15,2013-04-13 19:22:00,
2013-04-13 13:27:00,38.6,28.2,29.40,North,360,5.0,13.0,66,0.00,,,0.00,448,Wunderground v.1.15,2013-04-13 19:27:00,
2013-04-13 13:32:00,38.6,27.1,29.39,WNW,302,0.0,7.0,63,0.00,,,0.00,315,Wunderground v.1.15,2013-04-13 19:32:00,
2013-04-13 13:37:00,39.2,25.2,29.39,WSW,251,8.0,17.0,57,0.00,,,0.00,237,Wunderground v.1.15,2013-04-13 19:37:00,
2013-04-13 13:43:00,39.8,23.1,29.39,NW,318,14.0,22.0,51,0.00,,,0.00,250,Wunderground v.1.15,2013-04-13 19:43:00,
2013-04-13 13:48:00,41.2,22.5,29.37,WNW,300,15.0,29.0,47,0.00,,,0.00,921,Wunderground v.1.15,2013-04-13 19:48:00,
2013-04-13 13:53:00,43.0,20.9,29.37,WSW,254,8.0,23.0,41,0.00,,,0.00,909,Wunderground v.1.15,2013-04-13 19:53:00,
2013-04-13 13:58:00,43.2,21.1,29.37,WNW,293,21.0,32.0,41,0.00,,,0.00,932,Wunderground v.1.15,2013-04-13 19:58:00,
2013-04-13 14:03:00,43.3,19.4,29.36,NW,307,15.0,31.0,38,0.00,,,0.00,889,Wunderground v.1.15,2013-04-13 20:03:00,
2013-04-13 14:08:00,43.8,17.2,29.36,West,271,19.0,31.0,34,0.00,,,0.00,867,Wunderground v.1.15,2013-04-13 20:08:00,
2013-04-13 14:13:00,43.1,13.7,29.36,SW,227,16.0,29.0,30,0.00,,,0.00,853,Wunderground v.1.15,2013-04-13 20:13:00,
2013-04-13 14:18:00,43.1,14.5,29.36,NW,308,14.0,29.0,31,0.00,,,0.00,846,Wunderground v.1.15,2013-04-13 20:18:00,
2013-04-13 14:23:00,43.2,13.0,29.36,WNW,286,30.0,32.0,29,0.00,,,0.00,840,Wunderground v.1.15,2013-04-13 20:23:00,
2013-04-13 14:28:00,42.6,11.7,29.36,West,277,13.0,34.0,28,0.00,,,0.00,838,Wunderground v.1.15,2013-04-13 20:28:00,
2013-04-13 14:33:00,42.4,10.7,29.37,WSW,256,16.0,29.0,27,0.00,,,0.00,830,Wunderground v.1.15,2013-04-13 20:33:00,
2013-04-13 14:38:00,42.9,9.4,29.37,West,273,20.0,33.0,25,0.00,,,0.00,821,Wunderground v.1.15,2013-04-13 20:38:00,
2013-04-13 14:43:00,42.5,8.2,29.37,SW,225,22.0,30.0,24,0.00,,,0.00,823,Wunderground v.1.15,2013-04-13 20:43:00,
2013-04-13 14:48:00,42.5,8.2,29.38,WSW,239,11.0,30.0,24,0.00,,,0.00,817,Wunderground v.1.15,2013-04-13 20:48:00,
2013-04-13 14:53:00,43.3,9.8,29.38,WSW,250,8.0,18.0,25,0.00,,,0.00,837,Wunderground v.1.15,2013-04-13 20:53:00,
2013-04-13 14:58:00,43.5,9.0,29.38,WNW,288,16.0,28.0,24,0.00,,,0.00,851,Wunderground v.1.15,2013-04-13 20:58:00,
2013-04-13 15:03:00,43.7,9.2,29.39,NW,313,16.0,27.0,24,0.00,,,0.00,853,Wunderground v.1.15,2013-04-13 21:03:00,
2013-04-13 15:08:00,44.0,9.5,29.39,NW,304,19.0,27.0,24,0.00,,,0.00,844,Wunderground v.1.15,2013-04-13 21:08:00,
2013-04-13 15:13:00,44.7,10.1,29.39,WNW,292,12.0,29.0,24,0.00,,,0.00,840,Wunderground v.1.15,2013-04-13 21:13:00,
2013-04-13 15:18:00,44.3,9.7,29.41,West,260,7.0,34.0,24,0.00,,,0.00,849,Wunderground v.1.15,2013-04-13 21:18:00,
2013-04-13 15:23:00,42.9,10.3,29.41,NW,323,15.0,32.0,26,0.00,,,0.00,255,Wunderground v.1.15,2013-04-13 21:23:00,
2013-04-13 15:28:00,41.6,10.9,29.41,NW,315,10.0,32.0,28,0.00,,,0.00,211,Wunderground v.1.15,2013-04-13 21:28:00,
2013-04-13 15:33:00,40.3,11.3,29.42,West,261,11.0,28.0,30,0.00,,,0.00,297,Wunderground v.1.15,2013-04-13 21:33:00,
2013-04-13 15:38:00,40.2,11.2,29.42,WNW,285,14.0,28.0,30,0.00,,,0.00,311,Wunderground v.1.15,2013-04-13 21:38:00,
2013-04-13 15:44:00,40.8,10.9,29.42,WNW,285,13.0,27.0,29,0.00,,,0.00,947,Wunderground v.1.15,2013-04-13 21:44:00,
2013-04-13 15:49:00,42.4,11.5,29.43,WNW,291,13.0,31.0,28,0.00,,,0.00,889,Wunderground v.1.15,2013-04-13 21:49:00,
2013-04-13 15:54:00,42.7,10.1,29.43,WNW,284,26.0,28.0,26,0.00,,,0.00,895,Wunderground v.1.15,2013-04-13 21:54:00,
2013-04-13 15:59:00,42.6,6.3,29.43,NW,307,18.0,28.0,22,0.00,,,0.00,703,Wunderground v.1.15,2013-04-13 21:59:00,
2013-04-13 16:04:00,43.5,8.1,29.44,WNW,302,13.0,20.0,23,0.00,,,0.00,197,Wunderground v.1.15,2013-04-13 22:04:00,
2013-04-13 16:09:00,42.8,11.1,29.44,WNW,302,13.0,22.0,27,0.00,,,0.00,229,Wunderground v.1.15,2013-04-13 22:09:00,
2013-04-13 16:14:00,41.3,14.3,29.44,NW,310,21.0,26.0,33,0.00,,,0.00,789,Wunderground v.1.15,2013-04-13 22:14:00,
2013-04-13 16:19:00,41.5,13.8,29.45,West,260,11.0,26.0,32,0.00,,,0.00,782,Wunderground v.1.15,2013-04-13 22:19:00,
2013-04-13 16:24:00,40.9,16.0,29.45,WSW,246,17.0,34.0,36,0.00,,,0.00,650,Wunderground v.1.15,2013-04-13 22:24:00,
2013-04-13 16:29:00,38.1,15.3,29.45,West,277,11.0,34.0,39,0.00,,,0.00,292,Wunderground v.1.15,2013-04-13 22:29:00,
2013-04-13 16:34:00,37.2,13.9,29.48,West,274,9.0,22.0,38,0.00,,,0.00,272,Wunderground v.1.15,2013-04-13 22:34:00,
2013-04-13 16:39:00,37.0,13.1,29.48,WNW,298,17.0,22.0,37,0.00,,,0.00,241,Wunderground v.1.15,2013-04-13 22:39:00,
2013-04-13 16:44:00,37.0,11.8,29.48,WNW,302,14.0,20.0,35,0.00,,,0.00,274,Wunderground v.1.15,2013-04-13 22:44:00,
2013-04-13 16:49:00,37.5,11.6,29.48,West,270,6.0,20.0,34,0.00,,,0.00,371,Wunderground v.1.15,2013-04-13 22:49:00,
2013-04-13 16:54:00,39.0,12.3,29.48,West,259,8.0,19.0,33,0.00,,,0.00,508,Wunderground v.1.15,2013-04-13 22:54:00,
2013-04-13 16:59:00,39.2,11.8,29.48,NW,309,15.0,25.0,32,0.00,,,0.00,214,Wunderground v.1.15,2013-04-13 22:59:00,
2013-04-13 17:04:00,38.5,15.7,29.48,NW,315,11.0,27.0,39,0.00,,,0.00,195,Wunderground v.1.15,2013-04-13 23:04:00,
2013-04-13 17:09:00,36.6,17.7,29.48,NNW,344,11.0,27.0,46,0.00,,,0.00,188,Wunderground v.1.15,2013-04-13 23:09:00,
2013-04-13 17:14:00,35.9,18.6,29.48,NNW,329,15.0,23.0,49,0.00,,,0.00,253,Wunderground v.1.15,2013-04-13 23:14:00,
2013-04-13 17:19:00,36.1,19.7,29.49,NNW,333,8.0,23.0,51,0.00,,,0.00,601,Wunderground v.1.15,2013-04-13 23:19:00,
2013-04-13 17:24:00,36.9,20.0,29.49,NNW,337,17.0,18.0,50,0.00,,,0.00,626,Wunderground v.1.15,2013-04-13 23:24:00,
2013-04-13 17:29:00,37.9,18.9,29.49,WNW,302,9.0,18.0,46,0.00,,,0.00,434,Wunderground v.1.15,2013-04-13 23:29:00,
2013-04-13 17:34:00,38.0,16.4,29.49,NNW,331,16.0,20.0,41,0.00,,,0.00,156,Wunderground v.1.15,2013-04-13 23:34:00,
2013-04-13 17:39:00,36.8,17.4,29.49,NNW,346,14.0,21.0,45,0.00,,,0.00,214,Wunderground v.1.15,2013-04-13 23:39:00,
2013-04-13 17:45:00,37.0,17.6,29.50,NNW,338,6.0,18.0,45,0.00,,,0.00,352,Wunderground v.1.15,2013-04-13 23:45:00,
2013-04-13 17:50:00,38.4,14.4,29.50,NW,325,10.0,23.0,37,0.00,,,0.00,483,Wunderground v.1.15,2013-04-13 23:50:00,
2013-04-13 17:55:00,39.3,12.6,29.50,NW,323,22.0,23.0,33,0.00,,,0.00,448,Wunderground v.1.15,2013-04-13 23:55:00,
2013-04-13 18:00:00,39.5,12.0,29.50,WNW,294,9.0,14.0,32,0.00,,,0.00,330,Wunderground v.1.15,2013-04-14 00:00:00,
2013-04-13 18:05:00,38.7,10.6,29.50,WNW,290,16.0,23.0,31,0.00,,,0.00,362,Wunderground v.1.15,2013-04-14 00:05:00,
2013-04-13 18:10:00,39.3,11.1,29.50,WNW,294,13.0,15.0,31,0.00,,,0.00,394,Wunderground v.1.15,2013-04-14 00:10:00,
2013-04-13 18:15:00,39.7,10.7,29.51,NW,309,12.0,19.0,30,0.00,,,0.00,401,Wunderground v.1.15,2013-04-14 00:15:00,
2013-04-13 18:20:00,39.8,12.3,29.51,NW,324,9.0,11.0,32,0.00,,,0.00,396,Wunderground v.1.15,2013-04-14 00:20:00,
2013-04-13 18:25:00,40.3,12.7,29.51,NNW,334,13.0,18.0,32,0.00,,,0.00,396,Wunderground v.1.15,2013-04-14 00:25:00,
2013-04-13 18:30:00,40.2,12.6,29.51,NNW,340,9.0,12.0,32,0.00,,,0.00,329,Wunderground v.1.15,2013-04-14 00:30:00,
2013-04-13 18:35:00,40.2,14.7,29.51,NNW,344,12.0,16.0,35,0.00,,,0.00,357,Wunderground v.1.15,2013-04-14 00:35:00,
2013-04-13 18:40:00,39.7,14.2,29.51,NNW,344,16.0,18.0,35,0.00,,,0.00,276,Wunderground v.1.15,2013-04-14 00:40:00,
2013-04-13 18:45:00,38.6,10.5,29.53,WNW,290,16.0,21.0,31,0.00,,,0.00,158,Wunderground v.1.15,2013-04-14 00:45:00,
2013-04-13 18:50:00,37.8,10.5,29.53,NNW,328,6.0,14.0,32,0.00,,,0.00,118,Wunderground v.1.15,2013-04-14 00:50:00,
2013-04-13 18:55:00,37.1,11.3,29.53,NNW,329,12.0,18.0,34,0.00,,,0.00,95,Wunderground v.1.15,2013-04-14 00:55:00,
2013-04-13 19:00:00,36.3,11.2,29.53,NW,314,6.0,13.0,35,0.00,,,0.00,98,Wunderground v.1.15,2013-04-14 01:00:00,
2013-04-13 19:05:00,36.0,12.2,29.53,NNW,331,13.0,15.0,37,0.00,,,0.00,102,Wunderground v.1.15,2013-04-14 01:05:00,
2013-04-13 19:10:00,35.3,13.3,29.53,North,349,17.0,19.0,40,0.00,,,0.00,107,Wunderground v.1.15,2013-04-14 01:10:00,
2013-04-13 19:15:00,34.6,14.9,29.54,NW,322,9.0,19.0,44,0.00,,,0.00,102,Wunderground v.1.15,2013-04-14 01:15:00,
2013-04-13 19:20:00,34.4,15.2,29.54,NNW,329,9.0,17.0,45,0.00,,,0.00,88,Wunderground v.1.15,2013-04-14 01:20:00,
2013-04-13 19:25:00,34.4,15.2,29.54,NW,314,10.0,18.0,45,0.00,,,0.00,76,Wunderground v.1.15,2013-04-14 01:25:00,
2013-04-13 19:30:00,34.4,14.7,29.54,WNW,298,11.0,17.0,44,0.00,,,0.00,62,Wunderground v.1.15,2013-04-14 01:30:00,
2013-04-13 19:35:00,34.4,14.2,29.54,WNW,300,8.0,17.0,43,0.00,,,0.00,47,Wunderground v.1.15,2013-04-14 01:35:00,
2013-04-13 19:40:00,33.9,14.8,29.54,WNW,286,13.0,13.0,45,0.00,,,0.00,33,Wunderground v.1.15,2013-04-14 01:40:00,
2013-04-13 19:45:00,33.2,14.6,29.56,NW,310,12.0,20.0,46,0.00,,,0.00,25,Wunderground v.1.15,2013-04-14 01:45:00,
2013-04-13 19:50:00,33.1,14.5,29.56,WNW,301,8.0,13.0,46,0.00,,,0.00,25,Wunderground v.1.15,2013-04-14 01:50:00,
2013-04-13 19:55:00,33.0,14.4,29.56,NW,307,9.0,16.0,46,0.00,,,0.00,32,Wunderground v.1.15,2013-04-14 01:55:00,
2013-04-13 20:00:00,33.0,15.4,29.57,WNW,295,10.0,13.0,48,0.00,,,0.00,32,Wunderground v.1.15,2013-04-14 02:00:00,
2013-04-13 20:05:00,33.0,15.4,29.57,WNW,289,22.0,23.0,48,0.00,,,0.00,14,Wunderground v.1.15,2013-04-14 02:05:00,
2013-04-13 20:10:00,32.5,15.9,29.57,WNW,298,17.0,19.0,50,0.00,,,0.00,7,Wunderground v.1.15,2013-04-14 02:10:00,
2013-04-13 20:15:00,32.1,16.0,29.58,WNW,293,12.0,19.0,51,0.00,,,0.00,0,Wunderground v.1.15,2013-04-14 02:15:00,
2013-04-13 20:20:00,31.7,16.5,29.58,WNW,296,11.0,13.0,53,0.00,,,0.00,0,Wunderground v.1.15,2013-04-14 02:20:00,
2013-04-13 20:25:00,31.5,16.3,29.58,WNW,296,7.0,13.0,53,0.00,,,0.00,0,Wunderground v.1.15,2013-04-14 02:25:00,
2013-04-13 20:30:00,31.5,16.7,29.60,WNW,294,9.0,9.0,54,0.00,,,0.00,0,Wunderground v.1.15,2013-04-14 02:30:00,
2013-04-13 20:35:00,31.6,17.3,29.60,WNW,302,0.0,9.0,55,0.00,,,0.00,0,Wunderground v.1.15,2013-04-14 02:35:00,
2013-04-13 20:40:00,31.7,17.8,29.60,WNW,302,3.0,3.0,56,0.00,,,0.00,0,Wunderground v.1.15,2013-04-14 02:40:00,
2013-04-13 20:45:00,31.6,18.1,29.60,WNW,302,1.0,5.0,57,0.00,,,0.00,0,Wunderground v.1.15,2013-04-14 02:45:00,
2013-04-13 20:50:00,31.6,17.7,29.60,WNW,302,0.0,3.0,56,0.00,,,0.00,0,Wunderground v.1.15,2013-04-14 02:50:00,
2013-04-13 20:55:00,31.6,18.1,29.60,WNW,302,3.0,4.0,57,0.00,,,0.00,0,Wunderground v.1.15,2013-04-14 02:55:00,
2013-04-13 21:01:00,31.6,18.9,29.61,WNW,293,0.0,4.0,59,0.00,,,0.00,0,Wunderground v.1.15,2013-04-14 03:01:00,
2013-04-13 21:06:00,31.4,18.7,29.61,WNW,293,0.0,5.0,59,0.00,,,0.00,0,Wunderground v.1.15,2013-04-14 03:06:00,
2013-04-13 21:11:00,31.4,18.7,29.61,WNW,293,0.0,1.0,59,0.00,,,0.00,0,Wunderground v.1.15,2013-04-14 03:11:00,
2013-04-13 21:16:00,31.3,19.0,29.61,WNW,293,0.0,2.0,60,0.00,,,0.00,0,Wunderground v.1.15,2013-04-14 03:16:00,
2013-04-13 21:22:00,31.2,18.9,29.61,WNW,293,0.0,0.0,60,0.00,,,0.00,0,Wunderground v.1.15,2013-04-14 03:22:00,
2013-04-13 21:27:00,31.2,18.9,29.61,WNW,293,0.0,0.0,60,0.00,,,0.00,0,Wunderground v.1.15,2013-04-14 03:27:00,
2013-04-13 21:32:00,31.2,18.9,29.61,WNW,292,2.0,4.0,60,0.00,,,0.00,0,Wunderground v.1.15,2013-04-14 03:32:00,
2013-04-13 21:37:00,31.3,18.6,29.61,WNW,293,0.0,4.0,59,0.00,,,0.00,0,Wunderground v.1.15,2013-04-14 03:37:00,
2013-04-13 21:42:00,31.3,18.6,29.61,WNW,292,0.0,1.0,59,0.00,,,0.00,0,Wunderground v.1.15,2013-04-14 03:42:00,
2013-04-13 21:47:00,31.4,18.7,29.61,WNW,293,0.0,1.0,59,0.00,,,0.00,0,Wunderground v.1.15,2013-04-14 03:47:00,
2013-04-13 21:52:00,31.1,18.8,29.61,WNW,293,0.0,0.0,60,0.00,,,0.00,0,Wunderground v.1.15,2013-04-14 03:52:00,
2013-04-13 21:57:00,31.0,19.1,29.61,WNW,293,1.0,2.0,61,0.00,,,0.00,0,Wunderground v.1.15,2013-04-14 03:57:00,
2013-04-13 22:00:00,31.0,19.1,29.61,WNW,292,0.0,0.0,61,0.00,,,0.00,0,Wunderground v.1.15,2013-04-14 04:00:00,
2013-04-13 22:05:00,31.0,19.5,29.62,WNW,293,4.0,4.0,62,0.00,,,0.00,0,Wunderground v.1.15,2013-04-14 04:05:00,
2013-04-13 22:10:00,30.8,20.0,29.62,WSW,245,3.0,7.0,64,0.00,,,0.00,0,Wunderground v.1.15,2013-04-14 04:10:00,
2013-04-13 22:15:00,30.6,20.2,29.63,WSW,245,0.0,7.0,65,0.00,,,0.00,0,Wunderground v.1.15,2013-04-14 04:15:00,
2013-04-13 22:20:00,30.6,20.6,29.63,WSW,245,0.0,2.0,66,0.00,,,0.00,0,Wunderground v.1.15,2013-04-14 04:20:00,
2013-04-13 22:25:00,30.6,20.6,29.63,WSW,245,0.0,2.0,66,0.00,,,0.00,0,Wunderground v.1.15,2013-04-14 04:25:00,
2013-04-13 22:30:00,30.6,20.9,29.64,NW,309,4.0,9.0,67,0.00,,,0.00,0,Wunderground v.1.15,2013-04-14 04:30:00,
2013-04-13 22:35:00,30.3,21.7,29.64,NW,311,2.0,9.0,70,0.00,,,0.00,0,Wunderground v.1.15,2013-04-14 04:35:00,
2013-04-13 22:40:00,29.6,22.0,29.64,WNW,298,2.0,7.0,73,0.00,,,0.00,0,Wunderground v.1.15,2013-04-14 04:40:00,
2013-04-13 22:45:00,29.2,22.6,29.64,NW,306,0.0,9.0,76,0.00,,,0.00,0,Wunderground v.1.15,2013-04-14 04:45:00,
2013-04-13 22:50:00,28.9,22.6,29.64,NW,306,0.0,3.0,77,0.00,,,0.00,0,Wunderground v.1.15,2013-04-14 04:50:00,
2013-04-13 22:55:00,28.7,22.7,29.64,NW,306,0.0,3.0,78,0.00,,,0.00,0,Wunderground v.1.15,2013-04-14 04:55:00,
2013-04-13 23:00:00,28.6,23.2,29.63,NW,306,1.0,2.0,80,0.00,,,0.00,0,Wunderground v.1.15,2013-04-14 05:00:00,
2013-04-13 23:05:00,28.7,23.6,29.63,NW,306,0.0,2.0,81,0.00,,,0.00,0,Wunderground v.1.15,2013-04-14 05:05:00,
2013-04-13 23:11:00,28.5,23.4,29.63,NW,306,0.0,0.0,81,0.00,,,0.00,0,Wunderground v.1.15,2013-04-14 05:11:00,
2013-04-13 23:16:00,28.4,23.3,29.64,NW,306,0.0,0.0,81,0.00,,,0.00,0,Wunderground v.1.15,2013-04-14 05:16:00,
2013-04-13 23:21:00,28.4,23.6,29.64,NW,306,0.0,0.0,82,0.00,,,0.00,0,Wunderground v.1.15,2013-04-14 05:21:00,
2013-04-13 23:26:00,28.4,23.6,29.64,NW,306,0.0,2.0,82,0.00,,,0.00,0,Wunderground v.1.15,2013-04-14 05:26:00,
2013-04-13 23:31:00,28.5,23.7,29.64,NW,306,2.0,2.0,82,0.00,,,0.00,0,Wunderground v.1.15,2013-04-14 05:31:00,
2013-04-13 23:36:00,28.5,24.0,29.64,NW,307,4.0,4.0,83,0.00,,,0.00,0,Wunderground v.1.15,2013-04-14 05:36:00,
2013-04-13 23:41:00,28.5,24.0,29.64,NW,318,3.0,3.0,83,0.00,,,0.00,0,Wunderground v.1.15,2013-04-14 05:41:00,
2013-04-13 23:46:00,28.5,24.0,29.65,NE,49,2.0,7.0,83,0.00,,,0.00,0,Wunderground v.1.15,2013-04-14 05:46:00,
2013-04-13 23:51:00,28.4,24.2,29.65,NE,49,2.0,4.0,84,0.00,,,0.00,0,Wunderground v.1.15,2013-04-14 05:51:00,
2013-04-13 23:57:00,28.3,24.4,29.65,NE,48,3.0,4.0,85,0.00,,,0.00,0,Wunderground v.1.15,2013-04-14 05:57:00,